UAL236 KATL-KBOS

Flight info

Callsign UAL236
Flight time N/A
Altitude 35000
Route PLMMR3 BURGG Q22 RBV Q419 JFK ROBUC3
Aircraft A21N/M-SDE2E3FGHIRWXY/LB1

Departure

Time 2026-05-04 22:40
Airport Hartsfield Jackson Atlanta International Airport (KATL)

Arrival

Time N/A
Airport Boston Logan International Airport (KBOS)
Time Latitude Longitude Altitude Speed Heading
2026-05-04 21:53 33.63923 -84.44193 1009 ft 0 kts 270°
2026-05-04 22:30 33.63923 -84.44181 1009 ft 3 kts 270°
2026-05-04 22:30 33.63922 -84.44159 1009 ft 2 kts 269°
2026-05-04 22:30 33.63926 -84.44143 1009 ft 3 kts 223°
2026-05-04 22:30 33.63931 -84.44138 1009 ft 0 kts 200°
2026-05-04 22:32 33.63913 -84.44139 1009 ft 10 kts 176°
2026-05-04 22:32 33.63812 -84.44115 1009 ft 17 kts 179°
2026-05-04 22:32 33.63740 -84.44115 1009 ft 0 kts 180°
2026-05-04 22:34 33.63737 -84.44115 1009 ft 5 kts 179°
2026-05-04 22:34 33.63676 -84.44086 1010 ft 9 kts 124°
2026-05-04 22:35 33.63664 -84.43996 1010 ft 14 kts 90°
2026-05-04 22:35 33.63664 -84.43853 1009 ft 20 kts 90°
2026-05-04 22:35 33.63664 -84.43659 1009 ft 25 kts 90°
2026-05-04 22:35 33.63664 -84.43447 1009 ft 25 kts 90°
2026-05-04 22:36 33.63664 -84.43240 1009 ft 24 kts 90°
2026-05-04 22:36 33.63665 -84.43044 1009 ft 23 kts 90°
2026-05-04 22:36 33.63664 -84.42858 1009 ft 22 kts 90°
2026-05-04 22:36 33.63655 -84.42685 1010 ft 20 kts 93°
2026-05-04 22:37 33.63654 -84.42496 1010 ft 28 kts 90°
2026-05-04 22:37 33.63655 -84.42270 1010 ft 26 kts 89°
2026-05-04 22:37 33.63655 -84.42055 1010 ft 25 kts 90°
2026-05-04 22:37 33.63655 -84.41849 1009 ft 25 kts 90°
2026-05-04 22:38 33.63656 -84.41638 1009 ft 25 kts 89°
2026-05-04 22:38 33.63654 -84.41502 1009 ft 25 kts 89°
2026-05-04 22:38 33.63654 -84.41210 1009 ft 25 kts 89°
2026-05-04 22:38 33.63653 -84.41074 1009 ft 24 kts 92°
2026-05-04 22:39 33.63582 -84.40906 1009 ft 17 kts 179°
2026-05-04 22:39 33.63477 -84.40948 1010 ft 16 kts 244°
2026-05-04 22:39 33.63470 -84.41206 1008 ft 62 kts 271°
2026-05-04 22:39 33.63472 -84.42004 1010 ft 130 kts 270°
2026-05-04 22:40 33.63471 -84.43342 1074 ft 181 kts 268°
2026-05-04 22:40 33.63447 -84.44942 1464 ft 191 kts 269°
2026-05-04 22:40 33.63588 -84.46453 2246 ft 177 kts 296°
2026-05-04 22:40 33.64473 -84.47426 2751 ft 184 kts 343°
2026-05-04 22:41 33.65814 -84.47349 2894 ft 207 kts 28°
2026-05-04 22:41 33.66751 -84.46170 3576 ft 194 kts 73°
2026-05-04 22:41 33.66675 -84.44628 4105 ft 194 kts 122°
2026-05-04 22:41 33.65763 -84.43351 4347 ft 208 kts 130°
2026-05-04 22:42 33.65248 -84.41786 4788 ft 209 kts 79°